Regional Weather Roundup
Issued by NWS

Home | Current Version | Previous Version | Graphics & Text | Print | Product List | Glossary On
Versions: 1 2 3 4 5 6 7 8 9 10 11 12 13 14 15 16 17 18 19 20 21 22 23 24 25 26 27 28 29 30 31 32 33 34 35 36 37 38 39 40 41 42 43 44 45 46 47 48 49 50
000
ASUS45 KCYS 021710
RWRWY

WYOMING REGIONAL WEATHER ROUNDUP
NATIONAL WEATHER SERVICE CHEYENNE WY
1100 AM MDT MON MAY 02 2016

NOTE:  "FAIR" INDICATES FEW OR NO CLOUDS BELOW 12,000 FEET
WITH NO SIGNIFICANT WEATHER AND/OR OBSTRUCTIONS TO VISIBILITY.

WYZ001-021800-
YELLOWSTONE NATIONAL PARK

CITY           SKY/WX    TMP DP  RH WIND       PRES   REMARKS
LK YELLOWSTONE   N/A     37  18  46 E3        30.31F
W YELLOWSTONE  NOT AVBL

$$
WYZ002>013-054>058-071-098>099-021800-
NORTHERN WYOMING

CITY           SKY/WX    TMP DP  RH WIND       PRES   REMARKS
JACKSON        NOT AVBL
CODY           FAIR      54  27  35 CALM      30.21S
GREYBULL       FAIR      56  28  34 VRB7      30.21F
WORLAND        FAIR      54  32  43 CALM      30.21F
SHERIDAN       FAIR      60  35  39 N8        30.18S
BUFFALO          N/A    N/A N/A N/A MISG      30.19S
GILLETTE       FAIR      57  32  38 N18       30.16F
HULETT         FAIR      55  32  41 N12G17    30.16S
NEWCASTLE      FAIR      54  27  35 NW12G17   30.16F

$$
WYZ014>020-022>026-101>103-021800-
CENTRAL WYOMING

CITY           SKY/WX    TMP DP  RH WIND       PRES   REMARKS
BIG PINEY      FAIR      45  18  34 VRB7      30.30S
PINEDALE       FAIR      45  18  33 CALM      30.29F
DUBOIS         FAIR      48  16  27 CALM      30.24F
LANDER         FAIR      49  26  41 MISG      30.23F
RIVERTON       FAIR      48  26  42 SW7       30.25F
CASPER         FAIR      49  30  48 SW13      30.23S
DOUGLAS        FAIR      54  29  38 W21G26    30.19F

$$
WYZ021-027>030-104>119-021800-
SOUTHERN WYOMING

CITY           SKY/WX    TMP DP  RH WIND       PRES   REMARKS
EVANSTON       FAIR      45  18  34 NE7       30.29F
KEMMERER       FAIR      43  21  42 SE7       30.31S
FORT BRIDGER   SUNNY     43  27  52 E6        30.33F
ROCK SPRINGS   FAIR     N/A N/A N/A MISG      30.30F
DIXON          FAIR      45  26  46 SW6       30.30S
RAWLINS        FAIR      43  21  41 VRB5      30.26F
SARATOGA       FAIR      43  25  49 S5        30.26F
LARAMIE        FAIR      30  20  66 CALM      30.24S
CHEYENNE       FAIR      48  18  30 VRB5      30.21F
TORRINGTON     FAIR      54  28  36 W13       30.18F
PINE BLUFFS    FAIR      50  28  43 SW6       30.22S

$$



USA.gov is the U.S. government's official web portal to all federal, state and local government web resources and services.